[[{"header":{"parameterUnit":"m.s-1","parameterCategory":1,"la1":30.2991,"la2":30.254,"lo1":-89.0895,"lo2":-89.0444,"dy":0.0017,"dx":0.0017,"nx":28,"ny":28,"refTime":"2023-10-06T21:00:00:Z","depth":0,"parameterNumber":2,"parameterNumberName":"U-component_of_WINDS"},"data":[0,0,0,0,0,0,0,0,0,0,0,0,0,0,0,0,0,0,0,0,0,0,0,0,0,0,0,0,0,0,0,0,0,0,0,0,0,0,0,0,0,0,0,0,0,0,0,0,0,0,0,0,0,0,0,0,0,0,-3.0746,-3.0747,0,-3.0821,-3.0822,-3.0823,-3.0686,-3.0681,-3.0677,-3.0672,-3.0752,-3.0758,-3.0764,0,0,0,0,0,0,0,0,0,0,0,0,0,-3.0484,-3.049,-3.0746,-3.0747,-3.0748,-3.0821,-3.0822,-3.0823,-3.0687,-3.0681,-3.0676,-3.067,-3.075,-3.0757,-3.0765,0,0,0,0,0,0,0,0,0,0,0,0,0,-3.0583,-3.0492,-3.0746,-3.0688,-3.0684,-3.0821,-3.0822,-3.0823,-3.0688,-3.0681,-3.0674,-3.0668,-3.0747,-3.0756,-3.0766,-3.0962,0,0,-3.0795,-3.0799,0,0,0,0,0,0,0,0,-3.0577,-3.0593,-3.0696,-3.0693,-3.0688,-3.0737,-3.0759,-3.087,-3.069,-3.0687,-3.0672,-3.0664,-3.0753,-3.0761,-3.079,-3.0966,-3.0969,-3.0796,-3.0802,-3.0806,-3.0809,0,0,0,0,0,0,0,-3.0571,-3.0589,-3.0775,-3.0698,-3.0693,-3.0659,-3.0666,-3.0779,-3.0757,-3.0686,-3.0676,-3.0687,-3.0749,-3.0782,-3.0791,-3.0971,-3.0796,-3.0804,-3.081,-3.0814,-3.1311,-3.1318,0,0,0,0,0,0,-3.0571,-3.0584,-3.0773,-3.0778,-3.0615,-3.0669,-3.0677,-3.0728,-3.0756,-3.0753,-3.0693,-3.0681,-3.0769,-3.078,-3.0794,-3.1026,-3.0806,-3.0815,-3.082,-3.1304,-3.1313,-3.1321,0,0,0,0,0,0,-3.0566,-3.0589,-3.077,-3.0678,-3.0699,-3.0681,-3.074,-3.0733,-3.0766,-3.0761,-3.0756,-3.073,-3.0764,-3.078,-3.0921,-3.1027,-3.0819,-3.0828,-3.1295,-3.1306,-3.1317,-3.1493,0,0,0,0,0,0,-3.0559,-3.0588,-3.0663,-3.0681,-3.0704,-3.0897,-3.0747,-3.074,-3.0782,-3.0767,-3.0794,-3.0792,-3.076,-3.0908,-3.0931,-3.1036,-3.0835,-3.1285,-3.13,-3.1313,-3.1478,-3.1509,-3.1536,0,0,0,0,0,-3.055,-3.071,-3.0667,-3.0691,-3.0797,-3.0903,-3.0917,-3.0875,-3.0791,-3.0866,-3.0863,-3.0792,-3.1011,-3.0923,-3.0948,-3.1058,-3.1278,-3.1296,-3.1312,-3.1465,-3.1503,-3.1535,0,0,0,0,0,0,-3.0706,-3.0711,-3.0664,-3.0834,-3.0869,-3.088,-3.0974,-3.0916,-3.0977,-3.096,-3.0905,-3.0913,-3.1065,-3.1075,-3.0977,-3.125,-3.1131,-3.1153,-3.1238,-3.1274,-3.1303,-3.1299,-3.0843,0,0,0,0,0,-3.0759,-3.0845,-3.0845,-3.0995,-3.1015,-3.0992,-3.1037,-3.1001,-3.1035,-3.105,-3.1056,-3.1093,-3.117,-3.1222,-3.1293,-3.1477,-3.1482,-3.1565,-3.1594,-3.1618,-3.1639,-3.1738,-3.1775,-3.1376,-3.1376,-3.1375,0,0,-3.0872,-3.0886,-3.0944,-3.1027,-3.105,-3.1141,-3.1005,-3.1107,-3.1173,-3.1065,-3.1199,-3.1206,-3.1242,-3.1407,-3.1479,-3.142,-3.1749,-3.1639,-3.1658,-3.1666,-3.1759,-3.1797,-3.183,-3.1387,-3.1385,-3.1383,0,0,-3.1125,-3.1143,-3.127,-3.1296,-3.1332,-3.1314,-3.1345,-3.1364,-3.1364,-3.1497,-3.1418,-3.1496,-3.163,-3.166,-3.1693,-3.1954,-3.1891,-3.1978,-3.2131,-3.2228,-3.2259,-3.2287,-3.2382,-3.2416,-3.1999,-3.1999,-3.1999,0,-3.1261,-3.1394,-3.1343,-3.145,-3.149,-3.1394,-3.1523,-3.155,-3.1608,-3.1638,-3.1569,-3.1735,-3.1753,-3.1923,-3.1987,-3.2016,-3.205,-3.1977,-3.2258,-3.2286,-3.2311,-3.2401,-3.2437,-3.201,-3.2008,-3.2007,-3.2006,0,-3.156,-3.1653,-3.1751,-3.1809,-3.1859,-3.1977,-3.1944,-3.2001,-3.196,-3.1951,-3.2087,-3.2105,-3.2178,-3.2215,-3.2177,-3.238,-3.2342,-3.2267,-3.2147,-3.236,-3.2444,-3.2478,-3.2025,-3.2021,-3.2018,-3.2015,0,0,-3.1915,-3.1942,-3.1979,-3.2004,-3.2036,-3.2107,-3.222,-3.229,-3.234,-3.2382,-3.2477,-3.2591,-3.2521,-3.2559,-3.2522,-3.2607,-3.2815,-3.2522,-3.2522,-3.2578,-3.3041,-3.31,-3.314,-3.2772,-3.2778,-3.2783,-3.3039,0,-3.2167,-3.2362,-3.2319,-3.2511,-3.2596,-3.2506,-3.2604,-3.2635,-3.2628,-3.27,-3.2691,-3.2774,-3.2675,-3.2697,-3.2777,-3.2773,-3.2908,-3.2754,-3.2861,-3.2865,-3.2857,-3.3184,-3.3246,-3.3486,-3.3071,-3.3077,-3.308,0,-3.2488,-3.2542,-3.2743,-3.276,-3.2794,-3.2884,-3.2944,-3.3013,-3.3046,-3.3034,-3.3076,-3.3023,-3.3134,-3.3011,-3.3165,-3.3061,-3.3101,-3.3106,-3.3114,-3.3125,-3.2988,-3.3206,-3.3561,-3.3599,-3.3131,-3.3127,-3.3123,0,-3.273,-3.2852,-3.2988,-3.3012,-3.3035,-3.31,-3.3113,-3.3138,-3.3183,-3.3235,-3.3264,-3.3329,-3.3366,-3.3417,-3.3383,-3.3296,-3.3544,-3.3417,-3.3539,-3.3541,-3.3598,-3.3596,-3.3968,-3.362,-3.362,-3.3619,-3.3618,0,-3.3018,-3.3144,-3.3097,-3.3181,-3.332,-3.3269,-3.3408,-3.341,-3.3433,-3.3515,-3.344,-3.3519,-3.3468,-3.3544,-3.3517,-3.365,-3.3666,-3.3661,-3.3653,-3.367,-3.3671,-3.3698,-3.3681,-3.3629,-3.3626,-3.3625,-3.3623,0,-3.3313,-3.3286,-3.3428,-3.3438,-3.3443,-3.3546,-3.3554,-3.3632,-3.3618,-3.3724,-3.3746,-3.3725,-3.381,-3.378,-3.387,-3.3852,-3.4022,-3.3991,-3.4011,-3.4005,-3.4129,-3.4119,-3.4535,-3.4587,-3.4203,-3.4207,-3.421,0,-3.35,-3.3595,-3.3615,-3.3664,-3.3682,-3.3763,-3.3808,-3.3761,-3.3811,-3.3854,-3.3927,-3.4004,-3.4064,-3.4204,-3.4197,-3.4266,-3.4237,-3.4378,-3.4248,-3.4261,-3.4242,-3.4238,-3.4248,-3.4406,-3.441,-3.4414,-3.4417,0,-3.3835,-3.3817,-3.3884,-3.3948,-3.4003,-3.4051,-3.4091,-3.4136,-3.4091,-3.4151,-3.4236,-3.4282,-3.4374,-3.4453,-3.4514,-3.4527,-3.4466,-3.4457,-3.4489,-3.4509,-3.4518,-3.4517,-3.4085,-3.4449,-3.4446,-3.4443,-3.4441,-3.444,-3.4083,-3.4164,-3.419,-3.4268,-3.4293,-3.4333,-3.4406,-3.4401,-3.4471,-3.4542,-3.4509,-3.4608,-3.4637,-3.4713,-3.4734,-3.4811,-3.4757,-3.4803,-3.4815,-3.4828,-3.4845,-3.4503,-3.4822,-3.4821,-3.482,-3.4819,-3.4818,0,-3.4416,-3.4428,-3.45,-3.4559,-3.462,-3.4554,-3.4596,-3.4652,-3.474,-3.4771,-3.4831,-3.4929,-3.5004,-3.5002,-3.5072,-3.5134,-3.5108,-3.5154,-3.5151,-3.5155,-3.4889,-3.4855,-3.5175,-3.5175,-3.5174,-3.5174,-3.5174,-3.5174,-3.4597,-3.473,-3.4715,-3.4859,-3.487,-3.4966,-3.4995,-3.5032,-3.5056,-3.5169,-3.5231,-3.5228,-3.5247,-3.5317,-3.5383,-3.5381,-3.5411,-3.5469,-3.5457,-3.5209,-3.5174,-3.514,-3.5108,-3.5475,-3.5476,-3.5716,-3.5719,-3.572]},{"header":{"parameterUnit":"m.s-1","parameterCategory":1,"la1":30.2991,"la2":30.254,"lo1":-89.0895,"lo2":-89.0444,"dy":0.0017,"dx":0.0017,"nx":28,"ny":28,"refTime":"2023-10-06T21:00:00:Z","depth":0,"parameterNumber":3,"parameterNumberName":"V-component_of_WINDS"},"data":[0,0,0,0,0,0,0,0,0,0,0,0,0,0,0,0,0,0,0,0,0,0,0,0,0,0,0,0,0,0,0,0,0,0,0,0,0,0,0,0,0,0,0,0,0,0,0,0,0,0,0,0,0,0,0,0,0,0,-5.676,-5.6761,0,-5.6829,-5.683,-5.6831,-5.6731,-5.6727,-5.6724,-5.672,-5.6786,-5.6791,-5.6796,0,0,0,0,0,0,0,0,0,0,0,0,0,-5.6534,-5.6539,-5.676,-5.6761,-5.6762,-5.6829,-5.683,-5.6831,-5.6731,-5.6727,-5.6723,-5.6719,-5.6785,-5.6791,-5.6797,0,0,0,0,0,0,0,0,0,0,0,0,0,-5.6621,-5.6541,-5.676,-5.672,-5.6717,-5.6829,-5.683,-5.6831,-5.6732,-5.6727,-5.6722,-5.6717,-5.6783,-5.679,-5.6797,-5.695,0,0,-5.6821,-5.6824,0,0,0,0,0,0,0,0,-5.6616,-5.6629,-5.6725,-5.6723,-5.672,-5.6766,-5.6775,-5.6871,-5.6733,-5.6726,-5.672,-5.6714,-5.6783,-5.6791,-5.6815,-5.6953,-5.6956,-5.6821,-5.6826,-5.6829,-5.6831,0,0,0,0,0,0,0,-5.661,-5.6626,-5.6787,-5.6726,-5.6723,-5.6697,-5.6703,-5.6792,-5.6783,-5.6727,-5.6719,-5.6729,-5.6781,-5.6808,-5.6816,-5.6957,-5.6821,-5.6828,-5.6832,-5.6835,-5.722,-5.7225,0,0,0,0,0,0,-5.661,-5.6621,-5.6785,-5.6789,-5.6654,-5.6705,-5.6712,-5.6756,-5.6782,-5.6781,-5.6734,-5.6724,-5.6798,-5.6807,-5.6818,-5.6996,-5.6829,-5.6836,-5.684,-5.7214,-5.7221,-5.7227,0,0,0,0,0,0,-5.6605,-5.6625,-5.6782,-5.6703,-5.6721,-5.6715,-5.6765,-5.6761,-5.6787,-5.6788,-5.6785,-5.6763,-5.6794,-5.6807,-5.6917,-5.6997,-5.6839,-5.6846,-5.7207,-5.7216,-5.7224,-5.7355,0,0,0,0,0,0,-5.6599,-5.6624,-5.6684,-5.6706,-5.6726,-5.6883,-5.677,-5.6766,-5.6801,-5.679,-5.6815,-5.6814,-5.6791,-5.6907,-5.6925,-5.7004,-5.6852,-5.72,-5.7211,-5.7221,-5.7343,-5.7367,-5.7387,0,0,0,0,0,-5.6592,-5.6717,-5.6687,-5.6708,-5.68,-5.6888,-5.6899,-5.6871,-5.6808,-5.6867,-5.6866,-5.6813,-5.6986,-5.6919,-5.6938,-5.7022,-5.7195,-5.7208,-5.722,-5.7334,-5.7362,-5.7386,0,0,0,0,0,0,-5.6704,-5.672,-5.6686,-5.6823,-5.6855,-5.6871,-5.6944,-5.6903,-5.6952,-5.6939,-5.6901,-5.6907,-5.7025,-5.7034,-5.696,-5.7169,-5.7079,-5.7097,-5.7159,-5.7186,-5.7207,-5.7202,-5.6859,0,0,0,0,0,-5.6745,-5.6816,-5.6825,-5.6945,-5.6963,-5.6951,-5.6988,-5.6964,-5.6994,-5.7007,-5.7015,-5.7045,-5.7105,-5.7146,-5.7202,-5.7344,-5.7347,-5.7411,-5.7432,-5.745,-5.7465,-5.7539,-5.7567,-5.7269,-5.7269,-5.7269,0,0,-5.6829,-5.6847,-5.6894,-5.6968,-5.699,-5.7062,-5.6963,-5.7044,-5.7097,-5.7018,-5.7123,-5.713,-5.7161,-5.7287,-5.7343,-5.7299,-5.7548,-5.7467,-5.7481,-5.7486,-5.7555,-5.7583,-5.7608,-5.7278,-5.7276,-5.7275,0,0,-5.7021,-5.7042,-5.7143,-5.7167,-5.7202,-5.7193,-5.7217,-5.7239,-5.7241,-5.7346,-5.7288,-5.7349,-5.7455,-5.7479,-5.7505,-5.7704,-5.7655,-5.7723,-5.7836,-5.7908,-5.7931,-5.7952,-5.8021,-5.8047,-5.7738,-5.7738,-5.7739,0,-5.7121,-5.723,-5.72,-5.7286,-5.7319,-5.7252,-5.7353,-5.7377,-5.7428,-5.7451,-5.74,-5.7531,-5.7547,-5.7677,-5.7726,-5.775,-5.7774,-5.7719,-5.7931,-5.7951,-5.797,-5.8035,-5.8062,-5.7746,-5.7745,-5.7744,-5.7744,0,-5.7351,-5.7427,-5.7505,-5.7557,-5.7598,-5.7691,-5.7673,-5.7718,-5.769,-5.7686,-5.7792,-5.7809,-5.7866,-5.7895,-5.7869,-5.8021,-5.7992,-5.7937,-5.7846,-5.8007,-5.8067,-5.8092,-5.7757,-5.7755,-5.7752,-5.775,0,0,-5.7615,-5.7649,-5.7677,-5.7699,-5.7732,-5.7789,-5.7878,-5.7935,-5.7974,-5.8011,-5.8082,-5.8173,-5.8122,-5.8152,-5.8126,-5.819,-5.8344,-5.8127,-5.8127,-5.8165,-5.8511,-5.8552,-5.8581,-5.8313,-5.8318,-5.8321,-5.8508,0,-5.7805,-5.796,-5.7934,-5.8084,-5.8152,-5.809,-5.8166,-5.8193,-5.8191,-5.8248,-5.8244,-5.8309,-5.8237,-5.8254,-5.8315,-5.8313,-5.8413,-5.8299,-5.8377,-5.838,-5.837,-5.8613,-5.8657,-5.8832,-5.8532,-5.8536,-5.8539,0,-5.8047,-5.8094,-5.825,-5.8271,-5.8298,-5.8368,-5.8418,-5.8473,-5.8502,-5.8495,-5.8528,-5.8491,-5.8577,-5.8486,-5.8602,-5.8525,-5.8555,-5.8559,-5.8565,-5.857,-5.8469,-5.8624,-5.8888,-5.8914,-5.8576,-5.8573,-5.857,0,-5.8222,-5.8324,-5.843,-5.8451,-5.8478,-5.8528,-5.8541,-5.8564,-5.86,-5.8643,-5.8665,-5.8717,-5.8745,-5.8785,-5.8761,-5.8698,-5.8881,-5.8788,-5.8876,-5.8877,-5.8917,-5.8915,-5.9188,-5.8939,-5.8939,-5.8938,-5.8938,0,-5.8435,-5.8533,-5.8509,-5.8574,-5.8681,-5.865,-5.8755,-5.8761,-5.8782,-5.8845,-5.8794,-5.8854,-5.882,-5.8877,-5.8859,-5.8957,-5.897,-5.8966,-5.896,-5.897,-5.8971,-5.8989,-5.8975,-5.8945,-5.8944,-5.8942,-5.8941,0,-5.8649,-5.8637,-5.8748,-5.8764,-5.8771,-5.8848,-5.8861,-5.8921,-5.8915,-5.8995,-5.9012,-5.9002,-5.9066,-5.9048,-5.9117,-5.9105,-5.9228,-5.9207,-5.9219,-5.9213,-5.9302,-5.9293,-5.9596,-5.9633,-5.9361,-5.9364,-5.9366,0,-5.8785,-5.8859,-5.8884,-5.8923,-5.8941,-5.9005,-5.9041,-5.9012,-5.9052,-5.9089,-5.9144,-5.9204,-5.925,-5.9355,-5.9353,-5.9405,-5.9383,-5.9486,-5.9391,-5.9398,-5.9383,-5.9379,-5.9385,-5.9504,-5.9508,-5.951,-5.9512,0,-5.9028,-5.9019,-5.9074,-5.9127,-5.9172,-5.9212,-5.9247,-5.9281,-5.9255,-5.9301,-5.9367,-5.9403,-5.9474,-5.9533,-5.958,-5.9591,-5.9547,-5.9542,-5.9565,-5.9576,-5.9579,-5.9577,-5.9269,-5.9535,-5.9533,-5.9531,-5.953,-5.9529,-5.9206,-5.9268,-5.9295,-5.9358,-5.9381,-5.9415,-5.9471,-5.9472,-5.9527,-5.9584,-5.9563,-5.9638,-5.9662,-5.9721,-5.9738,-5.9795,-5.9755,-5.9789,-5.9797,-5.9805,-5.9816,-5.9571,-5.9803,-5.9802,-5.9802,-5.9801,-5.9801,0,-5.9445,-5.9459,-5.9517,-5.9568,-5.9617,-5.9573,-5.9609,-5.9652,-5.9719,-5.9746,-5.9793,-5.9867,-5.9924,-5.9926,-5.9979,-6.0024,-6.0005,-6.0038,-6.0034,-6.0037,-5.9849,-5.9823,-6.0053,-6.0053,-6.0053,-6.0053,-6.0053,-6.0053,-5.9575,-5.9677,-5.9671,-5.9783,-5.9795,-5.987,-5.9894,-5.9923,-5.9945,-6.0031,-6.0078,-6.008,-6.0096,-6.0149,-6.0199,-6.0198,-6.0219,-6.026,-6.0251,-6.0075,-6.005,-6.0026,-6.0002,-6.0265,-6.0266,-6.0434,-6.0436,-6.0437]}]]